Back to catalog

STARLINK-34721

AliveCommunicationsVLEO
NORAD 65039·PAYLOAD·🇺🇸 United States

Launched Jul 30, 2025 from Cape Canaveral Space Force Station

Loading…

Next Passes (next 24 hours)

TLE

FreshSource: CelesTrak SupGP

Epoch: Sep 15, 2026, 02:16 UTC

1 65039C 25161AA  26258.09493056  .00031888  00000+0  94229-3 0  2581
2 65039  53.1563 132.6266 0001248  86.8105 288.3849 15.34369322    18

Track STARLINK-34721 in real time with AllMySat

Download on the App Store